Station 41004 (LLNR 825) - EDISTO - 41 NM Southeast of Charleston, SC Image indicating link to RSS feed of recent meteorological observations for station 41004


Conditions at 41004 as of
(3:50 am EDT)
0750 GMT on 06/13/2024:
     

Click on the graph icon in the table below to see a time series plot of the last five days of that observation.

5-day plot - Wind Direction Wind Direction (WDIR):ENE ( 60 deg true )
5-day plot - Wind Speed Wind Speed (WSPD): 15.5 kts
5-day plot - Wind Gust Wind Gust (GST): 19.4 kts
5-day plot - Wave Height Wave Height (WVHT): 4.6 ft
5-day plot - Dominant Wave Period Dominant Wave Period (DPD): 6 sec
5-day plot - Average Wave Period Average Period (APD): 4.6 sec
5-day plot - Mean Wave Direction Mean Wave Direction (MWD):ESE ( 117 deg true )
5-day plot - Atmospheric Pressure Atmospheric Pressure (PRES):29.90 in
5-day plot - Air Temperature Air Temperature (ATMP): 79.9 °F
5-day plot - Water Temperature Water Temperature (WTMP): 80.8 °F
5-day plot - Dew Point Dew Point (DEWP): 77.0 °F
5-day plot - Heat Index Heat Index (HEAT): 85.5 °F
5-day plot - Wind Speed at 10 Meters Wind Speed at 10 meters (WSPD10M): 17.5 kts
5-day plot - Wind Speed at 20 Meters Wind Speed at 20 meters (WSPD20M): 17.5 kts
5-day plot -  Wind Speed, Wind Gust and Atmospheric Pressure Combined plot of Wind Speed, Gust, and Air Pressure
Supplemental Measurements
Highest 1-minute Wind Speed
Time (EDT)5-day plot - 1-Minute Wind Speed WSPD 5-day plot - 1-Minute Wind Direction WDIR
3:43 am 17.5 kts-
Previous observations
TIME
(EDT)
5-day plot - Wind Direction
WDIR
 
5-day plot - Wind Speed
WSPD
kts
5-day plot - Wind Gust
GST
kts
5-day plot - Wave Height
WVHT
ft
5-day plot - Dominant Wave Period
DPD
sec
5-day plot - Average Wave Period
APD
sec
5-day plot - Mean Wave Direction
MWD
 
5-day plot - Atmospheric Pressure
PRES
in
5-day plot - Pressure Tendency
PTDY
in
5-day plot - Air Temperature
ATMP
°F
5-day plot - Water Temperature
WTMP
°F
5-day plot - Dew Point
DEWP
°F
5-day plot - Salinity
SAL
psu
5-day plot - Visibility
VIS
nmi
5-day plot - Tide (above MLLW)
TIDE
ft
2024-06-13 03:40 amENE 17.5 21.4----29.90- 80.1 80.8 77.0---
2024-06-13 03:30 amENE 17.5 21.4----29.91- 80.1 80.8 76.8---
2024-06-13 03:20 amENE 15.5 19.4 4.3 64.7 E29.90- 79.9 80.8 76.6---
2024-06-13 03:10 amENE 15.5 19.4 4.3-4.7 E29.90- 79.9 80.8 76.6---
2024-06-13 03:00 amENE 15.5 19.4----29.90-0.04 79.9 80.8 76.6---
2024-06-13 02:50 amENE 15.5 19.4 4.3 74.7 SE29.90- 79.9 80.8 76.5---
2024-06-13 02:40 amENE 15.5 19.4----29.91- 79.7 80.8 76.1---
2024-06-13 02:30 amENE 15.5 17.5----29.91- 79.7 80.8 76.3---
2024-06-13 02:20 amENE 13.6 17.5 4.3 64.6ESE29.91- 79.7 80.8 76.3---
2024-06-13 02:10 amENE 15.5 17.5 4.3-4.6ESE29.91- 79.7 80.8 76.3---
2024-06-13 02:00 amENE 15.5 19.4----29.91-0.04 79.7- 76.5---
2024-06-13 01:50 amENE 13.6 17.5 3.9 74.6ESE29.91- 79.9 80.8 76.6---
2024-06-13 01:40 amENE 15.5 19.4----29.91- 79.9 80.8 76.5---
2024-06-13 01:30 amENE 15.5 19.4----29.91- 79.9 80.8 76.3---
2024-06-13 01:20 amENE 15.5 17.5 4.3 74.6 SE29.92- 79.9 80.8 76.3---
2024-06-13 01:10 amENE 15.5 17.5 4.3-4.6 SE29.93- 79.9 80.8 76.1---
2024-06-13 01:00 amENE 15.5 17.5----29.93-0.02 79.9 80.8 75.9---
2024-06-13 12:50 amENE 13.6 17.5 4.3 74.7 E29.93- 80.1- 76.1---
2024-06-13 12:40 amENE 15.5 17.5----29.93- 79.9 80.8 75.7---
2024-06-13 12:30 amENE 15.5 17.5----29.94- 79.9 80.8 75.9---
2024-06-13 12:20 amENE 13.6 17.5 4.3 64.6ENE29.93- 79.9 81.0 75.9---
2024-06-13 12:10 amENE 15.5 17.5 4.3-4.6ENE29.94- 80.1 81.0 76.1---
2024-06-13 12:00 amENE 15.5 17.5----29.94-0.01 80.1 81.0 75.9---
2024-06-12 11:50 pmENE 15.5 19.4 4.3 64.5ENE29.94- 80.1 81.0 75.9---
2024-06-12 11:40 pmENE 15.5 19.4----29.94- 80.1 81.0 75.9---
2024-06-12 11:30 pmENE 15.5 19.4----29.94- 80.1 81.0 75.9---
2024-06-12 11:20 pmENE 15.5 19.4 3.9 64.4ENE29.94- 80.1 81.0 75.7---
2024-06-12 11:10 pmENE 15.5 19.4 3.9-4.4ENE29.94- 80.1 81.0 75.6---
2024-06-12 11:00 pmENE 15.5 19.4----29.95-0.01 80.1 81.0 75.4---
2024-06-12 10:50 pm E 15.5 19.4 3.9 74.4ESE29.95- 80.1 81.0 75.6---
2024-06-12 10:40 pmENE 15.5 19.4----29.95- 80.1 81.0 75.6---
2024-06-12 10:30 pmENE 15.5 19.4----29.95- 80.1 80.8 75.4---
2024-06-12 10:20 pmENE 15.5 21.4 3.9 64.4 NE29.95- 80.1 80.8 75.4---
2024-06-12 10:10 pmENE 15.5 21.4 3.9-4.4 NE29.95- 79.9 80.8 75.2---
2024-06-12 10:00 pmENE 15.5 19.4----29.95+0.00 79.9 81.0 75.2---
2024-06-12 09:50 pmENE 15.5 17.5 3.9 64.3ENE29.95- 79.9 81.0 75.2---
2024-06-12 09:40 pmENE 15.5 19.4----29.95- 79.9 81.0 75.2---
2024-06-12 09:30 pmENE 15.5 19.4----29.95- 80.1 81.0 75.6---
2024-06-12 09:20 pmENE 15.5 19.4 3.9 64.3ENE29.95- 80.1 81.0 75.4---
2024-06-12 09:10 pmENE 15.5 19.4 3.9-4.3ENE29.95- 80.1 81.0 75.2---
2024-06-12 09:00 pmENE 15.5 19.4----29.95+0.00 80.1 81.0 75.2---
2024-06-12 08:50 pmENE 15.5 19.4 3.9 64.4ENE29.95- 80.1 81.0 75.2---
2024-06-12 08:40 pmENE 15.5 19.4----29.96- 80.1 81.0 75.4---
2024-06-12 08:30 pmENE 15.5 19.4----29.96- 80.1 81.0 75.2---
2024-06-12 08:20 pmENE 15.5 19.4 4.3 54.3 NE29.96- 80.1 81.0 75.6---
2024-06-12 08:10 pmENE 15.5 19.4 4.3-4.3 NE29.95- 80.1 81.0 75.7---
2024-06-12 08:00 pmENE 15.5 19.4----29.96+0.00 80.1 81.0 75.9---
2024-06-12 07:50 pmENE 17.5 21.4 3.9 54.4ENE29.96- 80.1 81.0 75.9---
2024-06-12 07:40 pmENE 17.5 19.4----29.96- 80.1 81.0 75.7---
2024-06-12 07:10 pmENE 17.5 21.4 4.3-4.3ENE29.95- 80.2 81.0 75.4---
2024-06-12 07:00 pmENE 15.5 19.4----29.95-0.01 80.2 81.0 75.2---
2024-06-12 06:50 pmENE 15.5 19.4 3.9 54.3ENE29.95- 80.2 81.0 75.0---
2024-06-12 06:40 pmENE 15.5 19.4----29.95- 80.2 81.0 74.8---
2024-06-12 06:30 pmENE 15.5 19.4----29.95- 80.2 81.0 74.8---
2024-06-12 06:20 pmENE 15.5 19.4 3.9 54.3ENE29.95- 80.2 81.0 74.8---
2024-06-12 06:10 pm NE 15.5 19.4 3.9-4.3ENE29.94- 80.2 81.0 75.0---
2024-06-12 06:00 pmENE 15.5 17.5----29.95-0.02 80.2 81.0 75.0---
2024-06-12 05:50 pm NE 15.5 17.5----29.95- 80.2 81.1 75.0---
2024-06-12 05:40 pm-------29.95-- 81.1----
2024-06-12 05:30 pmENE 13.6 17.5----29.95- 80.2 81.1 75.0---
2024-06-12 05:20 pmENE 15.5 19.4 3.9 64.3ENE29.95- 80.2 81.1 75.0---
2024-06-12 05:10 pm NE 15.5 17.5 3.9-4.3ENE29.95- 80.2 81.1 75.2---
2024-06-12 05:00 pm NE 15.5 17.5----29.95-0.01 80.2 81.1 75.2---
2024-06-12 04:50 pm NE 15.5 17.5 3.6 54.2ENE29.96- 80.2 81.1 75.2---
2024-06-12 04:40 pm NE 15.5 19.4----29.96- 80.1 81.1 74.7---
2024-06-12 04:30 pm NE 13.6 17.5----29.96- 80.4 81.1 75.2---
2024-06-12 04:20 pm NE 15.5 17.5 3.9 54.3ENE29.96- 80.2 81.1 74.5---
2024-06-12 04:10 pmENE 15.5 19.4 3.9-4.3ENE29.96- 80.2 81.1 74.1---
2024-06-12 04:00 pm NE 15.5 17.5----29.96+0.00 80.4 81.1 74.3---
2024-06-12 03:50 pmENE 15.5 19.4 3.6 54.2ENE29.96- 80.2 81.1 74.1---
2024-06-12 03:40 pm NE 15.5 19.4----29.97- 80.2- 74.5---
2024-06-12 03:30 pmENE 15.5 19.4----29.97- 80.2 81.1 74.8---
2024-06-12 03:20 pm NE 15.5 19.4 3.6 44.2ENE29.97- 80.2- 75.0---
2024-06-12 03:10 pm NE 15.5 19.4 3.6-4.2ENE29.97- 80.2 81.1 75.2---
2024-06-12 03:00 pm NE 15.5 19.4----29.97-0.01 80.2 81.1 75.4---
2024-06-12 02:50 pm NE 15.5 19.4 3.6 54.2ENE29.97- 80.2 81.1 75.6---
2024-06-12 02:40 pmENE 15.5 17.5----29.97- 80.2 81.0 75.7---
2024-06-12 02:30 pmENE 15.5 19.4----29.97- 80.2 81.0 75.7---
2024-06-12 02:20 pmENE 15.5 19.4 3.6 54.2ENE29.97- 80.4 81.0 75.7---
2024-06-12 02:10 pm NE 15.5 17.5----29.96- 80.2 81.0 75.6---
2024-06-12 02:00 pm NE 15.5 19.4 3.6-4.2ENE29.96+0.00 80.2 81.0 75.7---
2024-06-12 01:50 pm NE 15.5 17.5 3.6 54.3ENE29.96- 80.1 81.0 75.9---
2024-06-12 01:40 pm NE 13.6 17.5----29.97- 80.1 81.0 76.1---
2024-06-12 01:30 pm NE 13.6 17.5----29.97- 79.9 81.0 75.9---
2024-06-12 01:20 pm NE 15.5 17.5 3.9 54.5ENE29.97- 79.7 81.0 75.9---
2024-06-12 01:10 pm NE 15.5 17.5 3.9-4.5ENE29.96- 79.7 81.0 76.1---
2024-06-12 01:00 pm NE 15.5 19.4----29.96-0.01 79.5 81.0 75.7---
2024-06-12 12:50 pm NE 15.5 19.4 3.9 54.3 E29.97- 79.7 81.0 76.1---
2024-06-12 12:40 pm NE 15.5 17.5----29.97- 79.7 81.0 75.7---
2024-06-12 12:30 pmENE 15.5 19.4----29.97- 79.7 80.8 75.7---
2024-06-12 12:20 pmENE 15.5 19.4 3.6 44.3ENE29.98- 79.5 80.8 75.7---
2024-06-12 12:10 pmENE 15.5 17.5 3.6-4.3ENE29.98- 79.5 80.8 75.7---
2024-06-12 12:00 pmENE 13.6 17.5----29.98+0.02 79.5 80.8 75.7---
2024-06-12 11:50 amENE 15.5 17.5 3.6 84.3 S29.98- 79.3 80.8 75.6---
2024-06-12 11:40 am NE 15.5 19.4----29.98- 79.3 80.8 75.6---
2024-06-12 11:30 am NE 15.5 19.4----29.97- 79.3 80.8 75.7---
2024-06-12 11:20 am NE 13.6 17.5 3.6 74.3 S29.98- 79.5 80.8 75.9---
2024-06-12 11:10 amENE 13.6 17.5 3.6-4.3 S29.97- 79.3 80.6 75.6---
2024-06-12 11:00 amENE 15.5 19.4----29.97+0.02 79.3 80.6 75.4---
2024-06-12 10:50 am NE 15.5 17.5 3.3 64.2SSE29.97- 79.2 80.6 75.2---
2024-06-12 10:40 am NE 15.5 17.5----29.96- 79.2 80.6 75.0---
2024-06-12 10:30 amENE 15.5 17.5----29.97- 79.2 80.6 74.8---
2024-06-12 10:20 amENE 13.6 17.5 3.6 84.6 S29.97- 79.2 80.6 74.7---
2024-06-12 10:10 amENE 13.6 17.5 3.6-4.6 S29.97- 79.2 80.6 74.7---
2024-06-12 10:00 amENE 13.6 15.5----29.98+0.04 79.3 80.6 74.5---
2024-06-12 09:50 amENE 13.6 17.5 3.9 84.8 S29.97- 79.2 80.6 74.3---
2024-06-12 09:40 amENE 13.6 17.5----29.97- 79.2 80.6 74.1---
2024-06-12 09:30 amENE 13.6 17.5----29.97- 79.2 80.6 74.5---
2024-06-12 09:20 amENE 13.6 17.5 3.9 84.8 S29.96- 79.3 80.4 74.7---
2024-06-12 09:10 amENE 13.6 17.5----29.96- 79.2 80.4 74.5---
2024-06-12 09:00 amENE 13.6 15.5----29.96+0.04 79.3 80.4 74.8---
2024-06-12 08:50 amENE 13.6 17.5 3.6 74.9 S29.96- 79.2 80.4 74.5---
2024-06-12 08:40 amENE 13.6 17.5----29.96- 79.2 80.4 74.8---
2024-06-12 08:30 amENE 13.6 15.5----29.96- 79.0- 74.7---
2024-06-12 08:20 am NE 13.6 17.5 3.6 84.8SSE29.95- 78.8 80.4 74.5---
2024-06-12 08:10 amENE 13.6 17.5 3.6-4.8SSE29.95- 79.0 80.4 74.3---
2024-06-12 08:00 amENE 11.7 15.5----29.95+0.04 79.0 80.4 74.8---
2024-06-12 07:50 amENE 11.7 15.5 3.3 84.7 S29.96- 78.8 80.4 74.8---
2024-06-12 07:40 amENE 11.7 15.5----29.95- 79.0 80.4 74.8---
2024-06-12 07:30 amENE 11.7 13.6----29.95- 78.8 80.4 74.3---
2024-06-12 07:20 amENE 11.7 13.6 3.0 84.6SSE29.95- 78.8 80.4 74.5---
2024-06-12 07:10 amENE 11.7 13.6 3.0-4.6SSE29.95- 78.4 80.4 74.1---
2024-06-12 07:00 am NE 11.7 15.5----29.94+0.03 78.4 80.4 74.3---
2024-06-12 06:50 am NE 11.7 15.5 3.0 84.7SSE29.94- 78.3 80.4 74.5---
2024-06-12 06:40 am NE 11.7 13.6----29.94- 78.3 80.4 74.7---
2024-06-12 06:30 am NE 11.7 15.5----29.93- 78.1 80.4 74.5---
2024-06-12 06:20 amNNE 11.7 15.5 3.0 74.7SSE29.93- 77.9 80.4 74.3---
2024-06-12 06:10 amNNE 11.7 13.6 3.0-4.7SSE29.93- 77.9 80.4 74.5---
2024-06-12 06:00 amNNE 11.7 15.5----29.93+0.01 77.9 80.4 74.3---
2024-06-12 05:50 amNNE 11.7 13.6 2.6 84.7SSE29.92- 77.9 80.4 74.1---
2024-06-12 05:40 amNNE 9.7 11.7----29.92- 77.7 80.6 73.8---
2024-06-12 05:30 amNNE 9.7 13.6----29.92- 77.7 80.6 73.8---
2024-06-12 05:20 amNNE 9.7 11.7 3.0 74.9SSE29.92- 77.7 80.6 73.6---
2024-06-12 05:10 amNNE 11.7 13.6 3.0-4.9SSE29.91- 77.9 80.6 73.8---
2024-06-12 05:00 amNNE 11.7 13.6----29.91+0.00 77.9 80.6 73.4---
2024-06-12 04:50 amNNE 11.7 15.5 2.6 65.1 SE29.91- 77.9 80.6 73.0---
2024-06-12 04:40 am N 11.7 13.6----29.91- 77.9 80.6 73.2---
2024-06-12 04:30 amNNE 11.7 13.6----29.91- 77.9 80.6 73.2---
2024-06-12 04:20 amNNE 9.7 13.6 2.6 75.2 SE29.91- 77.9 80.6 73.2---
2024-06-12 04:10 amNNE 9.7 13.6 2.6-5.2 SE29.91- 77.9 80.6 73.0---
2024-06-12 04:00 amNNE 7.8 11.7----29.91+0.00 77.9 80.6 73.2---
2024-06-12 03:50 amNNE 5.8 9.7 3.0 75.3SSE29.91- 77.9 80.6 73.0---

Detailed Wave Summary
for 41004 as of (3:40 am EDT)
0740 GMT on 06/13/2024:

These wave data are displayed in rounded times.

     

Click on the graph icon in the table below to see a time series plot of the last five days of that observation.

5-day plot - Significant Wave Height Significant Wave Height (WVHT): 4.6 ft
5-day plot - Wave Steepness Wave Steepness (STEEPNESS): STEEP
5-day plot - Average Wave Period Average Wave Period (APD): 4.6 sec
Previous observations
TIME
(EDT)
5-day plot - Wave Height
WVHT
ft
5-day plot - Swell Height
SwH
ft
5-day plot - Swell Period
SwP
sec
5-day plot - Swell Direction
SwD
 
5-day plot - Wind Wave Height
WWH
ft
5-day plot - Wind Wave Period
WWP
sec
5-day plot - Wind Wave Direction
WWD
 
5-day plot - Wave Steepness
STEEPNESS
 
5-day plot - Average Wave Period
APD
sec
2024-06-13 03:10 am 4.3------ STEEP 4.7
2024-06-13 02:40 am 4.3------ STEEP 4.7
2024-06-13 02:10 am 4.3------ STEEP 4.6
2024-06-13 01:40 am 3.9------ STEEP 4.6
2024-06-13 01:10 am 4.3------ STEEP 4.6
2024-06-13 12:40 am 4.3------ STEEP 4.7
2024-06-13 12:10 am 4.3------VERY_STEEP 4.6
2024-06-12 11:40 pm 4.3------ STEEP 4.5
2024-06-12 11:10 pm 3.9------ STEEP 4.4
2024-06-12 10:40 pm 3.9------ STEEP 4.4
2024-06-12 10:10 pm 3.9------VERY_STEEP 4.4
2024-06-12 09:40 pm 3.9------VERY_STEEP 4.3
2024-06-12 09:10 pm 3.9------ STEEP 4.3
2024-06-12 08:40 pm 3.9------VERY_STEEP 4.4
2024-06-12 08:10 pm 4.3------VERY_STEEP 4.3
2024-06-12 07:40 pm 3.9------VERY_STEEP 4.4
2024-06-12 07:10 pm 4.3------VERY_STEEP 4.3
2024-06-12 06:40 pm 3.9------VERY_STEEP 4.3
2024-06-12 06:10 pm 3.9------VERY_STEEP 4.3
2024-06-12 05:10 pm 3.9------ STEEP 4.3
2024-06-12 04:40 pm 3.6------VERY_STEEP 4.2
2024-06-12 04:10 pm 3.9------VERY_STEEP 4.3
2024-06-12 03:40 pm 3.6------VERY_STEEP 4.2
2024-06-12 03:10 pm 3.6------VERY_STEEP 4.2
2024-06-12 02:40 pm 3.6------VERY_STEEP 4.2
2024-06-12 02:10 pm 3.6------VERY_STEEP 4.2
2024-06-12 01:40 pm 3.6------VERY_STEEP 4.3
2024-06-12 01:10 pm 3.9------VERY_STEEP 4.5
2024-06-12 12:40 pm 3.9------VERY_STEEP 4.3
2024-06-12 12:10 pm 3.6------VERY_STEEP 4.3
2024-06-12 11:40 am 3.6------ AVERAGE 4.3
2024-06-12 11:10 am 3.6------ AVERAGE 4.3
2024-06-12 10:40 am 3.3------ STEEP 4.2
2024-06-12 10:10 am 3.6------ AVERAGE 4.6
2024-06-12 09:40 am 3.9------ AVERAGE 4.8
2024-06-12 09:10 am 3.9------ AVERAGE 4.8
2024-06-12 08:40 am 3.6------ AVERAGE 4.9
2024-06-12 08:10 am 3.6------ AVERAGE 4.8
2024-06-12 07:40 am 3.3------ AVERAGE 4.7
2024-06-12 07:10 am 3.0------ N/A 4.6
2024-06-12 06:40 am 3.0------ AVERAGE 4.7
2024-06-12 06:10 am 3.0------ AVERAGE 4.7
2024-06-12 05:40 am 2.6------ N/A 4.7
2024-06-12 05:10 am 3.0------ AVERAGE 4.9
2024-06-12 04:40 am 2.6------ AVERAGE 5.1
2024-06-12 04:10 am 2.6------ AVERAGE 5.2

Plot of wave energy versus frequency (and period)